• Em Portugal
  • Lista de países
  • Para 7 dias
  • Temperatura da água
  • Mapas de satélite
  • Mapa do tempo
  • Widgets de tempo
  • user-avatar
    Iniciar Sessão

    Previsão horária em Mayrhofen

    Hoje, 16 Agosto, Quinta-feira

    Tempo Temperatura Precipitação Vento Pressão Humidade
    00:00 +9°C° 0 mm 1 m/s 621 mmHg 94%
    01:00 +9°C° 0 mm 1 m/s 621 mmHg 92%
    02:00 +8°C° 0 mm 1 m/s 620 mmHg 92%
    03:00 +8°C° 0 mm 1 m/s 620 mmHg 92%
    04:00 +7°C° 0 mm 1 m/s 620 mmHg 92%
    05:00 +9°C° 0 mm 1 m/s 620 mmHg 88%
    06:00 +10°C° 0 mm 1 m/s 621 mmHg 84%
    07:00 +11°C° 0 mm 1 m/s 621 mmHg 80%
    08:00 +13°C° 0 mm 0 m/s 622 mmHg 69%
    09:00 +15°C° 0 mm 0 m/s 623 mmHg 59%
    10:00 +17°C° 0 mm 0 m/s 623 mmHg 48%
    11:00 +20°C° 0 mm 1 m/s 623 mmHg 46%
    12:00 +21°C° 0 mm 1 m/s 623 mmHg 44%
    13:00 +22°C° 0 mm 1 m/s 623 mmHg 42%
    14:00 +21°C° 0 mm 1 m/s 623 mmHg 45%
    15:00 +21°C° 0 mm 1 m/s 622 mmHg 47%
    16:00 +20°C° 0 mm 1 m/s 622 mmHg 50%
    17:00 +18°C° 0 mm 1 m/s 621 mmHg 60%
    18:00 +16°C° 0 mm 1 m/s 621 mmHg 70%
    19:00 +14°C° 0 mm 1 m/s 620 mmHg 81%
    20:00 +13°C° 0 mm 1 m/s 620 mmHg 84%
    21:00 +12°C° 0 mm 1 m/s 619 mmHg 88%
    22:00 +10°C° 0 mm 1 m/s 619 mmHg 91%
    23:00 +10°C° 0 mm 1 m/s 619 mmHg 91%

    Amanhã, 17 Agosto, Sexta-feira

    Tempo Temperatura Precipitação Vento Pressão Humidade
    00:00 +10°C° 0 mm 1 m/s 619 mmHg 91%
    01:00 +10°C° 0 mm 1 m/s 619 mmHg 90%
    02:00 +9°C° 0 mm 1 m/s 619 mmHg 91%
    03:00 +9°C° 0 mm 1 m/s 618 mmHg 91%
    04:00 +9°C° 0 mm 1 m/s 618 mmHg 91%
    05:00 +10°C° 0 mm 1 m/s 619 mmHg 88%
    06:00 +11°C° 0 mm 1 m/s 619 mmHg 85%
    07:00 +13°C° 0 mm 1 m/s 620 mmHg 82%
    08:00 +15°C° 0 mm 1 m/s 620 mmHg 73%
    09:00 +18°C° 0 mm 1 m/s 621 mmHg 64%
    10:00 +20°C° 0 mm 1 m/s 622 mmHg 55%
    11:00 +21°C° 0,4 mm 1 m/s 622 mmHg 54%
    12:00 +21°C° 0,4 mm 1 m/s 622 mmHg 53%
    13:00 +20°C° 0,4 mm 2 m/s 622 mmHg 52%
    14:00 +19°C° 1,1 mm 2 m/s 621 mmHg 59%
    15:00 +19°C° 1,1 mm 2 m/s 621 mmHg 65%
    16:00 +18°C° 1,1 mm 2 m/s 621 mmHg 71%
    17:00 +16°C° 1,6 mm 2 m/s 620 mmHg 78%
    18:00 +15°C° 1,6 mm 1 m/s 620 mmHg 85%
    19:00 +14°C° 1,6 mm 1 m/s 620 mmHg 91%
    20:00 +13°C° 1 mm 1 m/s 620 mmHg 93%
    21:00 +12°C° 1 mm 1 m/s 620 mmHg 94%
    22:00 +12°C° 1 mm 1 m/s 620 mmHg 95%
    23:00 +11°C° 0,4 mm 1 m/s 620 mmHg 95%

    Depois de amanhã, 18 Agosto, Sábado

    Tempo Temperatura Precipitação Vento Pressão Humidade
    00:00 +11°C° 0,4 mm 1 m/s 620 mmHg 95%
    01:00 +11°C° 0,4 mm 1 m/s 620 mmHg 95%
    02:00 +11°C° 0,1 mm 1 m/s 620 mmHg 95%
    03:00 +10°C° 0,1 mm 1 m/s 620 mmHg 95%
    04:00 +10°C° 0,1 mm 1 m/s 620 mmHg 95%
    05:00 +10°C° 0 mm 1 m/s 620 mmHg 94%
    06:00 +11°C° 0 mm 1 m/s 621 mmHg 93%
    07:00 +11°C° 0 mm 1 m/s 621 mmHg 92%
    08:00 +13°C° 0,1 mm 1 m/s 622 mmHg 87%
    09:00 +14°C° 0,1 mm 1 m/s 622 mmHg 81%
    10:00 +15°C° 0,1 mm 1 m/s 623 mmHg 76%
    11:00 +16°C° 0,3 mm 1 m/s 623 mmHg 73%
    12:00 +18°C° 0,3 mm 1 m/s 623 mmHg 71%
    13:00 +18°C° 0,3 mm 2 m/s 623 mmHg 69%
    14:00 +17°C° 0,8 mm 2 m/s 623 mmHg 71%
    15:00 +17°C° 0,8 mm 2 m/s 623 mmHg 74%
    16:00 +17°C° 0,8 mm 2 m/s 623 mmHg 77%
    17:00 +16°C° 1 mm 2 m/s 623 mmHg 82%
    18:00 +15°C° 1 mm 1 m/s 622 mmHg 87%
    19:00 +14°C° 1 mm 1 m/s 622 mmHg 92%
    20:00 +13°C° 0,5 mm 1 m/s 622 mmHg 93%
    21:00 +13°C° 0,5 mm 1 m/s 623 mmHg 95%
    22:00 +12°C° 0,5 mm 1 m/s 623 mmHg 96%
    23:00 +12°C° 0,1 mm 1 m/s 623 mmHg 96%

    19 Agosto, Domingo

    Tempo Temperatura Precipitação Vento Pressão Humidade
    00:00 +12°C° 0,1 mm 1 m/s 623 mmHg 96%
    01:00 +12°C° 0,1 mm 1 m/s 623 mmHg 97%
    02:00 +12°C° 0,1 mm 1 m/s 623 mmHg 97%
    03:00 +12°C° 0,1 mm 1 m/s 623 mmHg 97%
    04:00 +11°C° 0,1 mm 1 m/s 622 mmHg 97%
    05:00 +12°C° 0 mm 1 m/s 623 mmHg 95%
    06:00 +11°C° 0 mm 0 m/s 623 mmHg 94%
    07:00 +12°C° 0 mm 0 m/s 623 mmHg 92%
    08:00 +13°C° 0 mm 0 m/s 624 mmHg 84%
    09:00 +16°C° 0 mm 1 m/s 625 mmHg 76%
    10:00 +19°C° 0 mm 1 m/s 625 mmHg 68%
    11:00 +20°C° 0,2 mm 1 m/s 625 mmHg 65%
    12:00 +20°C° 0,2 mm 1 m/s 625 mmHg 62%
    13:00 +21°C° 0,2 mm 1 m/s 625 mmHg 59%
    14:00 +21°C° 1 mm 1 m/s 625 mmHg 62%
    15:00 +21°C° 1 mm 1 m/s 625 mmHg 65%
    16:00 +20°C° 1 mm 1 m/s 625 mmHg 67%
    17:00 +19°C° 1,2 mm 1 m/s 624 mmHg 75%
    18:00 +16°C° 1,2 mm 1 m/s 624 mmHg 82%
    19:00 +13°C° 1,2 mm 0 m/s 623 mmHg 90%
    20:00 +13°C° 0,5 mm 0 m/s 623 mmHg 92%
    21:00 +12°C° 0,5 mm 0 m/s 623 mmHg 93%
    22:00 +11°C° 0,5 mm 0 m/s 623 mmHg 95%
    23:00 +10°C° 0 mm 0 m/s 623 mmHg 95%

    20 Agosto, Segunda-feira

    Tempo Temperatura Precipitação Vento Pressão Humidade
    00:00 +10°C° 0 mm 0 m/s 622 mmHg 95%
    01:00 +9°C° 0 mm 0 m/s 622 mmHg 95%
    02:00 +9°C° 0 mm 0 m/s 622 mmHg 95%
    03:00 +10°C° 0 mm 1 m/s 622 mmHg 95%
    04:00 +10°C° 0 mm 1 m/s 622 mmHg 95%
    05:00 +11°C° 0 mm 1 m/s 622 mmHg 94%
    06:00 +12°C° 0 mm 1 m/s 623 mmHg 92%
    07:00 +13°C° 0 mm 1 m/s 623 mmHg 90%
    08:00 +15°C° 0 mm 1 m/s 624 mmHg 82%
    09:00 +18°C° 0 mm 1 m/s 625 mmHg 74%
    10:00 +20°C° 0 mm 1 m/s 625 mmHg 65%
    11:00 +21°C° 0,2 mm 1 m/s 625 mmHg 62%
    12:00 +22°C° 0,2 mm 1 m/s 626 mmHg 59%
    13:00 +21°C° 0,2 mm 2 m/s 626 mmHg 56%
    14:00 +21°C° 0,7 mm 2 m/s 625 mmHg 60%
    15:00 +20°C° 0,7 mm 2 m/s 625 mmHg 64%
    16:00 +20°C° 0,7 mm 2 m/s 624 mmHg 68%
    17:00 +18°C° 0,8 mm 2 m/s 624 mmHg 76%
    18:00 +18°C° 0,8 mm 1 m/s 623 mmHg 83%
    19:00 +15°C° 0,8 mm 1 m/s 623 mmHg 90%
    20:00 +14°C° 0,1 mm 1 m/s 623 mmHg 92%
    21:00 +14°C° 0,1 mm 1 m/s 623 mmHg 94%
    22:00 +13°C° 0,1 mm 1 m/s 623 mmHg 96%
    23:00 +13°C° 0 mm 1 m/s 623 mmHg 96%

    21 Agosto, Terça-feira

    Tempo Temperatura Precipitação Vento Pressão Humidade
    00:00 +12°C° 0 mm 1 m/s 623 mmHg 96%
    01:00 +12°C° 0 mm 1 m/s 622 mmHg 96%
    02:00 +12°C° 0 mm 1 m/s 622 mmHg 96%
    03:00 +11°C° 0 mm 1 m/s 622 mmHg 96%
    04:00 +11°C° 0 mm 1 m/s 622 mmHg 96%
    05:00 +12°C° 0 mm 1 m/s 622 mmHg 93%
    06:00 +12°C° 0 mm 1 m/s 623 mmHg 91%
    07:00 +12°C° 0 mm 0 m/s 623 mmHg 89%
    08:00 +15°C° 0 mm 0 m/s 624 mmHg 78%
    09:00 +17°C° 0 mm 0 m/s 624 mmHg 68%
    10:00 +19°C° 0 mm 0 m/s 625 mmHg 58%
    11:00 +22°C° 0,1 mm 1 m/s 625 mmHg 55%
    12:00 +22°C° 0,1 mm 1 m/s 625 mmHg 52%
    13:00 +23°C° 0,1 mm 1 m/s 625 mmHg 49%
    14:00 +23°C° 0,5 mm 2 m/s 625 mmHg 53%
    15:00 +21°C° 0,5 mm 2 m/s 624 mmHg 56%
    16:00 +20°C° 0,5 mm 2 m/s 624 mmHg 60%
    17:00 +20°C° 0,9 mm 1 m/s 623 mmHg 69%
    18:00 +18°C° 0,9 mm 1 m/s 622 mmHg 79%
    19:00 +15°C° 0,9 mm 1 m/s 622 mmHg 88%
    20:00 +14°C° 0,5 mm 1 m/s 622 mmHg 91%
    21:00 +13°C° 0,5 mm 1 m/s 622 mmHg 93%
    22:00 +12°C° 0,5 mm 1 m/s 621 mmHg 95%
    23:00 +12°C° 0,3 mm 1 m/s 621 mmHg 95%
    Mostrar mais